LEGION 4

Last updated on Wed Feb 04 2026 00:02:33 GMT+0000 (Coordinated Universal Time)

1 60453U 24146B 26034.60778396 .00006024 00000+0 32319-3 0 9998 2 60453 45.0024 118.5288 0012347 268.3089 91.6375 15.15778004 80604
UTC large
Height (km)
Speed (km/s)
/
Latitude / Longitude
Inclination (degrees)
Orbital Period (minutes)
Azimuth
Elevation
Range (km)
Doppler Factor

Next 0 passes for location: London (51.5072 / 0.1276)

Sorry there are no passes over London.